Regional Weather Roundup
Issued by NWS

Home | Current Version | Previous Version | Graphics & Text | Print | Product List | Glossary On
Versions: 1 2 3 4 5 6 7 8 9 10 11 12 13 14 15 16 17 18 19 20 21 22 23 24 25 26 27 28 29 30 31 32 33 34 35 36 37 38 39 40 41 42 43 44 45 46 47 48 49 50
000
ASUS43 KDMX 031001
RWRIA

WEATHER ROUNDUP FOR IOWA
NATIONAL WEATHER SERVICE DES MOINES IA
400 AM CST SAT DEC 03 2016

NOTE: "FAIR" INDICATES FEW OR NO CLOUDS BELOW 12,000 FEET WITH NO
SIGNIFICANT WEATHER AND/OR OBSTRUCTIONS TO VISIBILITY.

* - THESE STATIONS ARE NOT NWS STATIONS...THUS NOT UNDER NWS
QUALITY CONTROL.  THEY ALSO DO NOT REPORT WEATHER SUCH
AS PRECIPITATION OR FOG.

IAZ001>003-012>014-020>022-031>034-043>046-031100-
   NORTHWEST IOWA

CITY           SKY/WX    TMP DP  RH WIND       PRES   REMARKS
CARROLL *      CLOUDY    34  32  93 W3        30.33F
CHEROKEE *     CLOUDY    32  30  93 SW5       30.32F WCI  27
LE MARS *      CLOUDY    32  30  93 S6        30.32F WCI  26
ORANGE CITY *  CLOUDY    30  28  93 CALM      30.30F
SIOUX CITY     PTCLDY    27  23  85 S3        30.33F
SPENCER        CLOUDY    31  27  85 W9        30.31F WCI  23
STORM LAKE *   CLOUDY    32  28  86 SW5       30.31F WCI  27
$$

IAZ055>058-069>071-079>083-090>094-031100-
   SOUTHWEST IOWA

CITY           SKY/WX    TMP DP  RH WIND       PRES   REMARKS
AUDUBON *      CLEAR     28  27  93 CALM      30.33F
COUNCIL BLFS * CLEAR     27  27 100 CALM      30.32F FOG
HARLAN  *      CLEAR     27  27 100 CALM      30.36F
LAMONI         CLOUDY    25  23  92 W5        30.34F WCI  19
RED OAK *      CLOUDY    23  21  93 CALM      30.34F
$$

IAZ047>049-059>061-072>074-084-031100-
   CENTRAL IOWA

CITY           SKY/WX    TMP DP  RH WIND       PRES   REMARKS
BOONE *        CLOUDY    34  30  86 CALM      30.33F
DES MOINES     MOCLDY    37  29  72 W3        30.35
GRINNELL*      CLOUDY    32  30  90 CALM      30.36F
KNOXVILLE *    CLOUDY    34  30  86 CALM      30.34S
MARSHALLTOWN   CLOUDY    32  29  88 S3        30.35S
NEWTON *       CLOUDY    34  30  86 CALM      30.35F
PELLA *        CLOUDY    34  31  88 N3        30.36F
$$

IAZ004>006-015-016-023>025-035-036-031100-
   NORTH CENTRAL IOWA

CITY           SKY/WX    TMP DP  RH WIND       PRES   REMARKS
ESTHERVILLE    CLOUDY    28  23  81 W3        30.31R
FORT DODGE *   CLOUDY    34  27  75 SW6       30.34F WCI  29
MASON CITY     CLOUDY    31  25  78 SW5       30.34R WCI  26
IOWA FALLS *   CLOUDY    33  30  88 S5        30.34F WCI  28
$$

IAZ007>011-017>019-026>030-037>042-050>054-066-031100-
   NORTHEAST IOWA

CITY           SKY/WX    TMP DP  RH WIND       PRES   REMARKS
CEDAR RAPIDS   CLOUDY    31  26  82 W5        30.36  WCI  26
CHARLES CITY * CLOUDY    30  25  80 S6        30.33F WCI  24
CLINTON *      CLOUDY    32  26  78 NW10      30.37S WCI  24
DECORAH *      CLOUDY    28  23  80 VRB6      30.32R WCI  22
DUBUQUE        CLOUDY    29  22  75 W9        30.34S WCI  20
OELWEIN *      CLOUDY    30  25  80 CALM      30.35S
$$

IAZ064-065-067-068-078-031100-
   EAST CENTRAL IOWA

CITY           SKY/WX    TMP DP  RH WIND       PRES   REMARKS
DAVENPORT      CLOUDY    32  25  75 NW8       30.37  WCI  25
IOWA CITY      CLOUDY    34  27  75 W6        30.40  WCI  29
MUSCATINE *    CLOUDY    34  28  80 CALM      30.39S
QUAD CITIES    CLOUDY    34  25  69 W9        30.37  WCI  27
$$

IAZ062-063-075>077-085>089-095>099-031100-
   SOUTHEAST IOWA

CITY           SKY/WX    TMP DP  RH WIND       PRES   REMARKS
BURLINGTON     CLOUDY    35  31  85 CALM      30.37
FORT MADISON * CLOUDY    34  30  86 CALM      30.38S
OSKALOOSA *    CLOUDY    33  31  92 CALM      30.36S
CENTERVILLE *  MOCLDY    30  28  93 CALM      30.36F
OTTUMWA        CLOUDY    34  30  85 CALM      30.36S
WASHINGTON *   CLOUDY    32  30  93 N3        30.38F
$$

ABBREVIATIONS USED IN REMARKS
   TC - TEMPERATURES IN CELSIUS
  WCI - WIND CHILL INDEX
   HX - HEAT INDEX
  VSB - VISIBILITY
$$




USA.gov is the U.S. government's official web portal to all federal, state and local government web resources and services.